GFSNW_850_spd_054.txt.gz
Wind_Speed
50 47 53 53 47 43 39 28 7 18 40 18 12 15 7 10 17 8 4 2 4 4 6 6 7 10 9 14 12 9 6 6 5 8 1 3 4 7 6 5 4 1 3 6
53 48 52 58 46 47 50 18 15 18 42 14 16 9 14 6 8 5 5 3 1 2 1 3 7 7 6 16 8 9 7 1 1 7 4 1 4 5 4 5 3 6 4 6
55 49 52 50 50 48 53 15 6 13 33 34 19 22 17 18 14 7 2 2 3 1 3 4 1 7 4 13 12 10 10 4 7 8 8 5 4 6 6 6 4 4 6 6
56 51 50 57 56 53 52 18 9 13 13 24 16 21 14 20 15 16 15 2 5 0 3 4 2 1 2 2 5 5 7 8 6 5 4 5 6 5 8 7 6 7 7 8
57 53 50 52 57 55 50 14 7 14 1 26 23 15 23 22 19 8 12 6 5 8 6 4 4 4 1 5 4 6 3 5 4 3 2 2 3 3 8 6 3 5 4 6
58 53 55 57 62 63 36 25 20 19 18 17 17 26 16 16 16 24 9 19 13 7 10 11 14 17 16 8 3 6 9 7 4 5 2 5 4 8 6 5 5 6 7 10
57 52 54 60 67 65 35 36 23 10 5 12 21 20 18 20 20 10 23 23 4 8 20 13 9 3 2 9 3 7 5 6 3 3 2 1 6 1 5 8 5 4 4 2
54 54 57 65 65 59 40 32 21 10 2 9 8 12 25 14 22 16 12 18 15 19 16 2 4 4 4 2 4 1 3 5 3 5 4 4 3 5 8 8 9 6 6 6
50 51 56 65 65 61 46 33 24 11 3 6 17 17 18 16 7 5 14 30 26 7 3 2 6 4 5 5 1 2 5 6 4 3 5 8 8 5 9 5 6 8 11 8
49 54 59 55 53 58 59 28 23 10 4 3 15 11 12 25 15 1 5 19 15 15 3 2 3 6 4 5 9 5 3 3 5 3 3 7 6 3 11 6 8 17 26 27
50 50 56 58 48 50 51 37 31 10 6 6 3 10 16 18 30 7 8 6 9 3 6 4 4 3 7 4 3 6 7 7 3 3 3 6 11 7 9 8 3 25 25 26
47 44 50 51 44 40 44 23 28 26 14 5 6 10 12 21 31 30 19 9 8 14 4 2 3 2 1 4 4 1 3 6 6 9 7 3 16 6 16 7 9 24 26 23
42 43 47 45 42 37 38 30 33 22 14 15 17 12 7 16 22 24 17 13 6 8 9 5 3 3 4 4 5 2 3 3 4 4 5 5 10 15 11 15 21 26 26 26
40 36 38 38 37 34 33 28 33 28 14 3 7 7 12 14 15 24 27 13 27 15 6 2 3 3 7 3 3 4 4 7 6 3 3 2 10 15 17 19 22 24 24 24
33 35 35 32 37 36 28 35 22 32 21 5 5 12 11 14 18 20 22 30 27 9 4 2 3 3 5 1 1 3 7 7 5 6 11 8 10 22 22 26 26 25 26 24
28 38 34 40 36 33 39 14 31 39 18 4 2 6 5 7 11 21 30 28 32 22 9 4 4 5 7 4 4 5 19 17 20 5 13 13 20 27 26 26 25 23 22 22
30 32 32 32 33 34 13 7 17 23 16 1 3 4 3 5 2 9 10 23 17 15 12 6 5 3 7 2 4 3 11 16 16 15 24 13 27 18 25 25 24 23 22 22
38 36 36 34 36 22 13 17 25 20 10 5 1 3 5 3 1 2 6 8 7 5 7 6 3 3 1 4 2 4 8 12 17 25 15 20 28 30 27 24 25 26 26 27
44 45 50 41 22 14 14 15 9 22 6 6 4 2 2 0 0 1 3 3 2 2 2 2 6 2 5 4 5 13 14 8 20 15 13 25 33 33 30 29 29 31 32 30
45 42 15 8 18 18 18 16 11 12 5 3 2 3 2 2 2 3 2 4 2 2 2 8 3 3 3 3 7 16 16 9 21 29 21 31 32 33 32 30 30 29 32 31
19 6 5 20 24 13 5 5 6 6 4 8 8 13 2 3 2 1 1 2 1 3 3 3 2 3 4 12 16 18 12 15 21 11 21 25 31 36 35 33 32 32 31 31
4 13 24 23 8 7 4 3 2 3 5 5 3 6 11 6 4 3 2 3 2 4 3 3 3 1 8 22 27 19 18 19 11 14 24 24 29 31 33 32 30 28 29 27
9 6 6 3 1 3 4 4 2 2 3 4 6 2 4 5 3 3 1 2 2 1 2 1 1 1 13 18 23 25 23 20 21 25 26 27 27 27 29 32 31 28 25 24
4 3 4 2 3 3 1 1 1 2 1 4 8 5 1 3 3 2 2 1 0 3 1 3 1 9 17 22 24 27 25 23 25 25 26 27 29 30 30 27 25 25 25 22
3 5 4 4 3 5 5 5 5 7 5 4 4 4 3 3 3 1 2 2 2 2 2 2 5 16 20 22 23 24 24 25 25 26 28 30 31 29 26 25 24 19 18 17
6 10 5 10 4 7 11 14 9 11 5 3 4 3 3 3 2 3 3 2 2 2 2 6 15 16 18 21 22 24 25 24 25 26 29 29 26 27 27 24 19 15 13 14
6 5 19 9 6 7 8 11 14 9 3 2 2 4 4 1 3 3 4 3 3 5 7 9 14 17 18 20 21 22 24 26 28 29 28 29 26 23 21 19 16 15 13 10

GFSNW_850_spd_057.txt.gz
Wind_Speed
53 56 49 45 39 47 38 33 9 20 38 19 16 18 18 11 21 1 3 1 3 3 5 5 6 11 7 17 16 10 6 4 4 6 1 1 2 6 5 3 3 0 1 5
54 59 54 51 43 50 46 20 15 24 50 14 16 16 22 16 9 12 6 4 2 2 1 3 5 6 5 18 8 11 8 2 2 1 1 2 3 4 4 5 3 7 4 4
56 61 60 55 47 56 48 16 6 15 35 34 19 21 20 24 25 4 4 3 2 2 2 2 2 5 3 15 7 11 15 4 6 10 7 4 4 6 7 6 3 5 7 8
62 63 65 59 51 58 45 20 6 13 11 23 18 20 18 26 14 25 13 3 6 2 4 2 2 2 3 2 5 5 5 7 6 4 4 5 5 5 12 11 10 8 11 10
61 68 68 61 54 57 43 18 8 16 7 34 21 19 21 26 23 11 18 12 9 10 6 2 4 4 1 1 2 2 2 5 5 3 2 7 5 8 7 7 4 9 8 7
56 73 70 60 55 65 35 31 29 26 21 19 18 21 21 15 17 19 13 16 3 3 13 7 5 7 9 7 2 5 4 5 4 5 2 5 4 7 9 5 5 6 8 11
57 73 68 60 58 73 34 35 27 17 5 14 18 22 16 23 21 8 25 7 12 7 12 10 7 6 4 5 5 7 5 5 2 3 1 4 3 1 3 9 6 8 4 4
68 70 64 57 57 73 34 39 23 17 4 10 16 18 20 7 23 20 11 19 11 8 6 1 1 2 2 1 1 4 3 5 3 5 4 3 2 5 7 7 11 7 11 5
71 69 60 55 56 66 39 37 32 16 9 8 12 19 24 13 9 5 7 12 8 3 3 2 5 5 4 2 2 3 5 4 3 3 5 8 8 4 8 4 8 9 13 11
68 58 56 52 55 62 43 31 32 18 8 1 22 15 15 27 7 4 6 21 6 8 2 1 3 3 4 3 5 5 3 2 7 3 4 5 6 6 12 6 9 10 20 18
59 53 50 49 58 60 44 30 33 23 8 3 11 11 19 20 28 7 9 7 7 2 4 3 3 3 5 4 4 4 6 7 4 3 1 7 11 8 9 8 7 11 22 25
49 47 47 48 54 60 43 28 29 15 7 2 2 5 11 22 41 31 27 9 8 12 4 3 2 3 1 5 9 2 4 6 5 9 6 2 28 9 22 9 8 11 25 29
43 43 45 46 53 53 40 26 26 15 1 7 6 7 6 12 31 36 12 12 11 10 12 6 3 4 5 4 5 4 4 4 3 2 4 5 13 19 13 17 13 11 23 33
44 50 44 46 46 42 39 28 19 22 4 2 5 5 12 10 18 26 33 10 15 5 8 3 2 2 7 4 4 5 3 8 6 4 4 5 17 24 24 18 14 16 22 30
41 41 41 40 35 31 29 33 19 20 7 2 6 9 12 13 15 17 28 33 17 4 3 2 3 3 2 1 0 3 7 6 5 6 13 11 11 22 24 20 20 23 28 28
41 37 35 35 32 30 27 10 18 22 18 4 1 15 27 17 13 18 22 27 29 16 6 4 6 6 6 4 5 4 23 17 17 3 10 16 10 11 21 24 25 27 29 30
32 30 29 26 25 24 20 8 6 25 27 5 2 2 9 21 15 14 19 25 16 18 11 6 5 5 7 2 9 5 16 23 20 16 12 8 15 12 21 25 27 27 26 27
27 29 30 28 27 21 24 12 16 31 16 3 2 3 4 3 5 5 10 11 17 14 9 4 4 3 2 5 4 13 15 14 15 17 19 14 18 18 26 27 29 29 29 29
29 30 31 25 23 11 19 20 23 27 14 4 3 2 2 3 3 5 4 4 1 7 3 3 8 4 7 5 9 16 18 16 15 19 15 13 20 27 30 31 31 33 32 32
34 31 9 6 17 17 25 21 11 3 4 5 2 4 1 1 1 2 3 3 2 2 3 11 4 4 7 8 8 14 18 16 15 17 13 21 23 28 27 27 27 28 32 34
21 6 6 14 23 14 5 5 5 5 3 6 6 7 1 3 2 2 3 1 1 2 3 4 3 3 4 15 13 14 15 15 16 13 15 19 27 33 28 26 26 30 33 35
6 10 20 22 8 5 4 4 3 5 6 6 4 5 7 3 2 2 2 1 0 3 2 0 2 3 10 5 12 15 13 16 14 10 13 19 25 27 31 30 29 29 30 30
21 7 5 2 5 7 5 7 3 3 2 6 7 3 7 4 3 3 2 3 3 1 1 1 2 6 5 6 10 13 13 13 17 18 17 19 22 24 26 29 29 30 29 28
4 2 4 2 3 3 2 2 2 2 3 7 8 4 2 4 2 2 3 1 0 0 0 2 3 2 8 11 10 13 15 14 16 20 22 23 24 26 26 28 29 30 29 25
4 5 3 4 5 8 7 5 4 3 4 8 7 5 3 2 3 1 2 2 3 3 2 3 4 2 8 11 14 16 18 20 22 22 23 26 28 30 30 28 26 24 26 22
5 9 6 11 4 7 11 14 7 8 5 6 4 3 3 2 2 3 4 2 3 3 3 6 1 5 9 13 16 17 19 21 23 23 24 27 28 29 29 27 25 20 16 16
5 5 23 13 4 5 9 13 16 9 4 2 3 5 3 3 4 4 4 4 5 10 10 9 6 10 14 16 18 20 21 23 23 25 27 29 29 29 27 25 21 16 14 13

GFSNW_850_spd_060.txt.gz
Wind_Speed
50 48 49 49 44 41 36 33 8 25 38 17 10 19 31 16 22 13 6 3 4 5 8 14 17 17 17 26 24 22 16 8 8 13 4 3 6 9 11 5 5 3 3 6
46 52 50 52 51 50 45 24 9 27 44 14 15 22 28 29 18 22 8 7 5 2 4 7 17 11 11 15 22 21 14 10 9 9 6 5 8 10 11 6 2 11 6 4
47 48 53 55 59 56 48 20 6 14 36 42 28 20 23 30 32 17 21 5 7 3 3 6 5 8 3 13 23 17 23 13 19 13 12 9 12 14 15 13 7 10 11 15
48 49 56 57 67 60 50 22 10 18 16 21 27 28 21 30 20 30 18 17 11 11 4 2 4 3 5 6 4 8 13 18 16 15 13 13 16 15 15 17 17 15 12 12
50 48 49 64 73 62 49 12 20 29 19 38 33 26 25 30 31 23 23 15 19 10 3 2 4 2 2 2 4 7 6 11 12 16 14 13 16 16 17 17 17 12 16 14
51 49 53 67 73 66 38 26 25 30 18 25 22 23 27 26 28 25 30 19 9 12 15 10 9 6 7 4 2 6 6 8 7 12 6 6 7 15 16 15 14 15 15 14
52 50 52 75 76 70 42 31 31 20 13 14 22 30 24 29 26 25 13 26 17 9 6 9 6 6 10 10 8 10 6 12 6 5 4 7 8 2 14 18 16 16 15 13
52 52 51 77 75 70 42 39 28 20 10 18 21 27 31 23 25 25 21 11 20 15 4 5 7 4 3 7 7 10 12 8 4 5 9 10 5 5 9 11 16 18 19 17
51 52 49 75 70 70 39 39 34 17 12 16 26 21 30 20 18 19 19 19 11 13 3 5 9 8 7 7 7 2 7 8 6 4 6 9 8 14 15 6 13 11 13 13
51 53 59 78 66 65 39 39 31 24 15 11 25 19 23 35 22 14 18 13 11 11 4 3 5 7 5 8 8 6 5 3 11 8 6 5 4 8 14 9 15 2 12 12
50 54 75 71 63 62 39 36 31 24 17 16 10 22 25 37 26 14 22 11 7 7 8 6 5 4 5 5 6 6 8 9 5 6 6 10 11 11 10 13 4 8 13 15
47 67 71 65 62 58 44 30 34 23 9 6 6 14 18 26 36 24 26 12 19 11 7 6 5 3 1 7 8 5 5 5 2 8 5 2 27 16 23 7 9 9 13 15
65 64 57 56 56 56 38 32 33 23 7 2 5 7 11 22 30 28 15 18 12 13 11 5 4 4 6 5 7 8 6 3 4 4 10 11 10 19 9 10 10 7 9 16
58 50 52 55 50 32 38 35 29 24 9 3 4 7 15 10 18 33 23 15 13 9 13 5 3 3 6 6 11 10 10 10 12 16 14 6 14 18 21 15 14 14 12 18
43 41 47 50 48 31 35 36 26 18 8 2 4 6 7 7 10 24 23 11 16 10 5 3 4 3 3 2 2 7 9 11 6 8 12 12 15 10 19 21 20 16 17 21
38 37 45 49 38 35 31 9 15 15 9 4 2 7 13 10 6 15 23 27 17 9 6 4 7 6 7 4 9 15 23 20 20 18 11 13 13 10 10 15 16 18 20 22
35 36 43 44 35 29 10 6 15 12 9 4 2 3 8 19 15 13 15 21 21 17 15 8 9 6 8 4 11 13 12 18 20 12 11 8 15 6 11 14 15 18 18 22
35 36 34 33 33 24 15 12 15 18 9 4 3 3 4 15 12 9 14 12 12 10 8 3 9 10 4 6 14 26 27 21 13 16 17 15 12 11 10 12 15 19 22 25
34 32 29 25 14 7 5 6 7 20 5 4 3 3 3 15 10 10 8 8 3 5 3 5 6 7 8 8 17 16 16 18 18 15 15 12 11 10 12 15 19 22 22 24
33 27 8 5 10 11 14 8 8 10 5 5 3 1 4 6 9 5 4 2 3 3 4 8 4 10 19 18 10 9 16 18 15 8 8 10 10 11 12 15 16 18 22 23
19 5 3 7 19 15 8 6 4 6 4 9 8 9 5 2 2 3 2 3 4 4 3 3 3 1 4 16 12 10 7 7 9 7 8 8 9 16 18 16 16 19 23 27
7 11 15 13 6 2 2 4 4 6 5 7 3 3 4 5 4 2 2 2 1 2 2 1 1 3 13 10 4 3 3 2 1 1 3 7 11 13 16 20 23 25 29 29
14 5 3 1 2 3 5 8 4 4 2 6 6 3 2 0 2 3 1 2 2 1 1 1 3 9 14 9 2 3 4 5 5 9 11 13 18 19 21 24 25 27 31 32
5 3 4 2 2 3 3 3 3 3 3 11 10 4 2 2 2 0 2 2 1 3 2 3 4 11 9 6 4 8 11 11 14 16 17 19 20 23 22 26 30 34 34 30
7 6 5 4 5 7 9 5 4 6 6 7 5 4 1 2 2 2 2 3 3 5 3 4 12 8 4 6 9 13 16 16 18 19 21 24 26 29 31 30 30 30 28 27
6 8 7 13 5 9 13 14 9 8 4 6 3 2 2 3 2 3 5 2 5 4 4 11 7 8 10 12 14 17 19 21 23 25 26 29 32 33 33 30 26 24 22 20
4 5 19 12 5 7 13 13 16 6 1 2 2 4 5 2 4 3 5 4 6 10 9 10 11 13 15 17 20 22 23 26 28 30 29 30 30 30 28 27 22 20 17 15

GFSNW_850_spd_063.txt.gz
Wind_Speed
47 43 43 44 43 41 41 35 10 21 37 17 19 19 26 38 35 22 15 11 19 11 13 17 9 22 22 19 21 25 21 12 12 17 16 20 13 18 17 9 11 7 8 11
43 45 46 47 48 49 48 20 13 22 46 14 17 31 33 29 30 26 20 14 11 12 9 10 18 9 11 9 24 24 19 11 13 16 10 9 12 13 13 14 11 11 8 7
43 43 50 51 51 55 53 17 7 16 42 43 31 31 27 30 38 29 23 16 8 9 10 10 6 16 8 7 15 25 24 15 17 15 16 15 18 17 18 16 9 12 14 16
44 46 47 56 57 62 57 23 9 16 14 26 30 29 27 33 32 37 27 21 18 12 8 10 11 10 6 6 9 8 19 21 19 20 17 13 16 20 20 20 19 18 15 17
46 45 47 58 67 71 54 17 19 27 13 34 32 27 32 34 31 30 30 22 22 17 10 7 9 6 7 8 11 14 19 16 21 19 19 18 13 16 18 19 18 17 19 19
48 48 50 51 61 79 41 30 35 33 21 28 23 25 31 31 30 36 34 29 18 20 10 4 2 7 3 5 3 14 16 14 16 17 19 19 18 18 18 18 17 15 17 16
52 53 54 55 57 80 43 44 41 13 13 18 26 29 32 35 31 29 31 30 22 12 4 2 3 6 4 10 9 8 13 16 11 7 2 12 11 16 19 21 20 16 17 18
52 55 56 57 60 75 57 38 36 18 9 19 20 28 26 34 37 22 28 22 29 10 4 5 4 2 6 8 12 10 10 11 10 8 11 13 15 8 12 15 16 16 17 17
45 55 56 56 55 72 61 41 35 26 13 15 28 20 28 20 21 21 29 29 15 13 6 8 8 8 13 9 5 8 10 11 9 6 14 17 12 16 13 14 13 17 17 8
44 53 54 53 56 73 52 39 35 21 18 10 23 16 24 37 25 17 20 28 14 20 9 9 9 12 15 16 15 6 6 6 13 11 8 8 10 13 14 11 11 11 5 7
43 50 52 57 59 74 50 36 40 25 14 19 8 20 23 28 36 15 20 15 14 10 10 8 6 4 11 12 15 12 10 9 5 8 9 11 7 10 13 15 19 9 11 11
46 49 47 49 67 71 47 34 37 32 8 8 10 9 18 19 43 29 22 18 17 12 9 6 6 4 1 8 11 11 8 10 9 9 5 7 20 16 25 14 10 9 11 10
44 45 49 49 68 64 40 34 32 28 12 5 8 13 9 18 14 15 24 29 21 25 24 7 4 5 7 6 10 15 13 7 4 6 11 12 13 15 17 9 12 10 9 11
42 46 44 65 57 37 43 42 32 27 10 4 6 8 14 19 11 14 15 25 20 19 19 7 4 4 7 7 10 10 11 8 10 17 19 22 13 12 17 17 16 14 11 13
41 50 59 66 45 33 37 35 26 18 9 5 9 7 7 23 17 15 15 16 21 17 9 3 5 9 7 5 7 10 15 13 9 9 11 12 18 20 13 20 23 17 15 16
50 49 49 53 40 34 34 9 18 17 14 4 4 4 8 11 14 13 24 23 15 20 14 9 12 16 13 4 9 12 21 24 20 16 21 19 12 15 15 11 15 16 15 16
48 48 40 40 35 26 14 8 17 21 12 3 1 3 11 17 10 12 15 29 22 15 10 5 9 12 8 5 10 11 13 17 23 21 17 12 16 11 7 5 6 10 11 14
39 43 40 31 30 21 12 14 23 15 7 2 2 2 3 18 11 8 17 21 25 16 11 8 9 8 5 5 13 26 25 27 27 23 15 17 14 9 5 5 6 7 10 13
40 36 31 20 13 8 8 22 16 10 2 4 4 3 3 6 15 9 13 14 8 7 7 9 7 8 8 6 17 18 18 17 19 22 22 15 13 11 8 6 6 10 12 15
38 26 8 7 6 24 17 6 2 3 2 2 2 4 2 3 0 5 2 4 6 5 6 9 5 10 17 7 14 15 11 14 11 7 9 8 10 9 7 6 7 9 13 16
7 5 6 16 17 5 3 4 3 3 2 6 6 10 2 3 2 1 4 2 2 4 4 7 3 3 6 16 15 12 11 9 7 5 7 6 5 5 4 5 7 10 13 17
9 16 17 10 2 3 1 4 3 5 4 6 5 7 5 1 7 6 1 4 3 4 6 3 3 2 11 13 12 11 9 6 3 4 5 7 9 10 13 15 17 19 21 24
10 6 4 3 2 4 4 6 4 3 2 3 6 4 7 5 15 1 3 3 2 4 3 2 3 9 12 11 8 7 3 2 5 9 11 11 15 16 15 21 20 22 25 25
5 2 3 3 3 6 6 5 5 3 2 7 11 4 2 4 1 1 3 3 1 2 2 4 5 14 11 9 8 8 12 13 16 18 18 20 21 22 21 22 23 26 29 29
7 6 4 6 7 10 9 15 5 8 4 2 6 4 1 2 2 3 1 3 4 6 4 4 12 11 8 9 11 14 17 19 21 22 25 27 28 30 30 28 30 32 31 27
6 10 6 15 5 9 14 12 11 12 6 1 5 2 2 4 2 3 6 4 6 4 4 11 9 11 12 14 16 19 20 22 24 27 29 33 35 37 37 32 29 26 25 24
6 5 16 13 7 11 14 13 12 12 8 4 3 5 5 2 4 4 5 4 5 11 12 13 13 14 16 18 21 22 24 27 29 31 33 34 33 31 29 28 24 23 21 20

GFSNW_850_spd_066.txt.gz
Wind_Speed
46 42 42 42 42 39 38 34 9 24 39 17 11 24 25 37 29 39 28 24 25 18 20 13 19 21 16 19 20 23 25 9 10 16 17 16 17 17 15 6 8 5 2 5
41 41 42 43 45 46 46 20 15 28 46 13 19 23 33 28 30 25 24 28 21 14 19 14 15 14 10 5 19 20 20 16 10 15 16 16 19 14 14 13 11 11 8 4
39 41 44 47 47 51 51 19 6 14 39 39 27 25 27 28 43 31 26 23 22 19 16 12 8 17 5 5 7 33 22 17 15 11 15 14 14 16 19 18 7 7 9 11
40 40 45 46 52 55 58 24 10 18 15 23 29 25 14 27 30 33 29 22 20 23 15 15 15 10 10 3 5 5 4 16 17 17 19 20 21 18 19 19 13 15 12 15
42 44 43 47 48 54 54 16 12 30 11 27 26 25 28 25 30 29 34 26 18 17 17 16 19 18 9 5 7 9 6 12 17 16 19 19 14 19 22 20 19 16 17 17
45 47 50 49 51 62 32 29 39 29 21 22 17 26 30 31 23 31 37 30 19 12 21 4 11 9 5 4 3 10 9 7 12 15 17 18 17 17 14 14 15 15 15 11
48 48 48 50 52 57 35 45 41 15 12 15 24 30 32 29 28 24 30 37 21 22 17 9 13 4 5 2 2 5 4 11 9 6 3 22 11 13 15 15 16 15 14 12
43 50 49 53 54 53 44 37 38 22 11 19 21 26 28 31 29 24 24 38 40 18 5 6 7 3 3 7 2 3 8 8 4 6 12 12 18 12 13 14 16 16 17 17
42 50 51 53 54 51 48 43 46 25 13 12 33 17 27 16 18 18 26 37 24 18 5 4 9 6 8 8 2 7 13 9 10 4 12 14 9 12 8 9 11 14 13 10
47 51 53 54 53 50 43 43 44 29 8 10 15 15 20 31 22 14 18 25 21 21 5 3 7 8 10 8 9 5 7 6 13 8 6 6 7 12 16 15 7 14 15 15
46 49 51 51 49 51 48 37 51 24 6 14 6 26 20 30 28 15 19 17 6 11 9 7 6 5 7 8 14 13 13 7 7 5 7 13 4 8 19 9 15 12 17 9
38 45 51 52 51 54 47 29 41 23 12 8 9 25 20 26 34 22 21 20 11 13 7 6 6 3 2 7 8 12 10 13 8 7 7 6 17 11 12 11 9 11 12 7
33 49 50 50 48 47 44 37 41 23 17 2 11 14 12 5 13 22 12 20 14 24 20 5 4 3 5 4 6 8 11 10 4 10 12 6 8 15 12 11 11 9 10 5
31 45 45 46 45 47 32 46 31 24 17 2 5 2 9 7 6 9 17 13 13 22 19 7 3 4 7 5 7 9 8 12 12 13 20 11 20 14 14 10 11 14 12 10
40 42 41 46 45 43 36 39 28 23 14 2 6 10 9 10 7 8 15 9 15 13 14 3 6 8 5 0 3 5 8 7 4 3 6 5 4 6 2 9 11 19 16 12
37 38 35 52 58 43 30 12 23 27 28 2 4 6 8 8 11 11 17 9 11 11 7 6 8 12 6 2 5 11 17 18 20 8 13 15 11 8 13 13 14 12 9 10
43 44 40 46 46 32 11 6 26 31 14 3 2 4 8 10 9 9 9 15 11 11 7 6 8 11 15 5 6 8 15 15 12 13 15 12 11 4 4 8 6 6 6 7
49 44 43 37 34 25 14 18 29 16 4 3 1 1 3 9 5 4 11 10 14 7 3 5 6 10 6 3 8 18 22 24 23 22 19 12 9 7 6 8 5 6 5 5
41 41 37 34 14 6 11 21 20 15 3 3 2 1 1 6 7 4 11 13 6 5 1 2 4 3 4 3 5 8 15 10 10 11 10 6 8 4 4 3 3 5 2 4
23 17 9 6 9 26 21 10 3 1 1 3 1 3 1 4 5 2 3 3 2 4 6 3 4 4 6 19 15 14 14 12 12 10 10 9 7 3 1 1 1 2 7 8
10 6 8 20 13 6 3 3 3 3 1 4 6 9 3 3 2 1 7 2 2 5 5 7 4 2 6 21 16 15 16 14 10 7 5 5 4 2 9 10 12 15 16 18
7 18 15 8 4 4 3 2 2 2 3 6 4 4 4 2 2 1 4 2 2 5 5 4 3 3 17 18 17 14 10 7 8 10 11 11 12 13 16 16 16 17 20 22
11 6 4 2 3 3 2 5 3 2 2 2 8 3 5 5 2 0 2 3 4 1 3 3 3 11 14 14 12 13 11 8 8 11 11 13 17 17 16 22 20 21 24 25
6 4 5 4 4 5 5 5 4 6 8 12 7 3 2 4 3 3 3 2 2 3 3 4 6 13 11 12 12 14 17 18 20 22 22 24 25 26 26 26 25 27 28 25
7 7 5 6 5 9 8 10 5 10 11 9 3 3 4 3 3 2 3 2 4 6 4 4 12 12 11 11 14 16 19 22 25 26 29 30 30 31 31 28 28 29 30 30
6 9 4 15 4 8 13 12 9 12 14 6 2 3 3 2 2 4 7 4 6 4 4 14 13 14 14 16 18 20 22 25 28 31 33 35 36 36 36 34 32 31 30 29
5 5 14 12 6 11 11 13 14 16 8 2 3 5 4 3 3 4 5 4 5 12 15 18 18 16 18 20 24 27 28 30 31 32 32 33 33 32 32 32 28 26 25 24

GFSNW_850_spd_069.txt.gz
Wind_Speed
42 42 41 40 37 35 34 31 7 13 38 17 16 22 26 16 15 21 17 16 20 18 18 15 15 11 9 16 7 21 17 3 12 17 18 18 14 10 8 5 5 4 5 5
40 41 42 43 40 40 41 20 13 23 47 14 20 18 24 26 18 19 11 12 10 15 16 9 3 10 7 14 11 11 8 5 7 11 15 16 17 7 10 8 4 6 6 5
37 39 38 42 42 43 48 17 6 13 42 37 19 20 20 20 26 20 25 16 19 21 15 14 6 7 1 4 8 28 14 9 16 14 10 6 4 7 9 8 4 4 6 6
35 36 35 37 41 44 55 20 8 18 15 25 20 19 11 23 18 29 15 11 21 18 13 6 3 4 6 7 7 7 9 15 17 16 17 18 19 14 15 16 11 7 5 8
39 38 36 40 42 47 55 15 9 23 1 20 22 20 24 22 24 14 28 22 17 12 14 7 5 8 5 7 7 7 8 6 10 16 14 18 14 15 14 12 8 5 16 13
38 39 40 41 45 53 49 30 37 28 20 15 16 28 27 21 16 27 24 20 15 17 17 9 1 7 16 8 6 10 6 5 6 12 14 15 6 18 13 14 11 10 9 9
44 43 42 43 46 50 36 38 38 7 9 13 21 19 21 22 21 19 16 29 17 35 14 2 6 14 15 17 10 6 6 6 2 4 1 15 6 10 13 15 6 5 3 3
43 45 47 47 48 50 48 23 34 15 4 20 12 21 22 25 31 19 21 27 33 24 11 2 2 3 3 8 5 7 1 5 3 9 10 7 8 4 5 6 8 5 5 6
41 43 45 46 50 49 52 29 39 28 4 13 28 19 22 15 19 18 25 28 23 24 4 2 5 5 7 6 3 1 0 5 4 2 5 14 2 6 14 4 5 5 2 5
41 41 44 47 49 48 50 30 39 19 15 11 33 15 19 29 18 13 10 14 11 23 3 6 4 4 4 7 10 4 2 1 5 2 2 6 6 8 14 5 6 9 11 9
42 42 41 45 47 46 48 25 48 28 21 18 17 27 16 24 27 12 4 6 10 2 5 6 4 4 6 4 4 7 5 5 3 3 5 13 6 4 7 6 17 22 14 8
45 45 42 42 48 46 47 26 34 35 16 11 23 31 26 21 11 16 27 9 3 5 4 5 4 3 1 6 3 4 5 6 5 7 4 6 12 11 18 4 5 6 4 7
41 37 44 44 46 44 48 33 40 31 9 10 11 17 31 16 6 12 15 21 17 15 13 2 4 4 3 5 9 5 5 4 4 1 5 2 13 15 25 14 8 8 5 4
33 38 42 44 43 47 40 32 42 30 6 4 3 9 24 27 10 7 12 11 18 23 20 4 4 4 6 4 5 5 5 9 7 3 3 7 6 13 26 21 15 21 15 13
36 39 43 43 42 43 39 28 39 27 5 3 3 8 14 22 11 7 8 8 8 11 3 2 4 4 2 2 1 4 4 6 5 5 12 13 11 16 13 15 28 19 15 14
38 42 47 51 45 38 34 11 36 24 9 6 2 5 14 8 6 4 6 6 5 10 7 3 6 13 5 1 3 3 4 4 6 3 7 11 8 19 8 5 2 5 6 7
44 45 45 40 30 34 12 8 24 21 12 8 2 2 4 4 6 6 5 8 4 7 4 4 1 15 4 2 2 3 6 9 10 10 14 5 8 7 7 4 1 3 2 1
43 47 42 37 32 24 19 17 28 23 12 1 2 1 4 11 4 4 9 9 6 5 6 1 2 8 3 1 4 8 15 17 12 12 8 8 9 6 3 3 1 5 6 2
47 47 33 25 19 12 20 26 23 13 3 3 2 3 2 5 2 4 9 9 2 5 3 2 2 3 1 8 15 21 25 18 18 12 15 12 13 10 12 7 5 8 11 14
29 29 9 6 11 26 24 8 5 5 4 2 1 2 3 4 4 3 2 3 3 3 5 8 2 2 13 19 15 15 19 19 17 16 10 10 13 13 10 7 9 12 13 18
9 8 10 28 19 5 4 4 3 3 1 2 2 3 3 2 3 1 3 1 2 3 3 6 4 2 5 16 14 13 11 11 11 9 6 3 3 10 11 12 13 14 15 17
14 21 17 6 4 5 5 1 2 1 1 2 2 5 5 3 4 2 3 2 1 2 1 4 3 3 11 12 13 13 9 5 3 3 4 5 9 12 14 17 19 20 22 24
12 6 6 5 6 6 4 2 3 3 6 9 2 2 1 2 1 2 1 2 3 2 2 3 4 10 13 11 13 13 11 8 7 10 10 12 16 17 17 20 19 22 25 28
8 6 6 4 5 4 3 3 3 5 8 16 9 3 1 1 1 1 1 1 2 3 4 3 4 12 13 15 15 16 18 19 20 23 23 25 27 29 27 28 27 29 31 28
8 7 5 5 5 12 8 10 6 9 12 9 2 2 1 2 1 3 3 4 5 5 3 3 12 15 15 16 18 20 22 24 25 26 28 30 31 32 32 30 30 30 30 30
7 10 5 13 4 6 11 11 8 13 14 5 2 0 2 4 3 4 6 3 5 3 3 14 15 17 19 21 23 25 26 27 29 32 34 35 36 37 37 35 34 33 31 30
6 5 16 10 5 7 11 13 15 13 7 3 3 5 4 3 4 4 4 4 3 9 15 20 21 22 24 24 26 28 30 31 32 34 35 35 34 34 34 35 31 29 28 26

GFSNW_850_spd_072.txt.gz
Wind_Speed
41 40 38 35 34 33 28 28 6 21 34 15 10 18 11 15 16 16 15 8 11 10 7 7 10 10 8 13 14 17 12 5 6 9 5 5 7 11 9 5 5 5 3 5
39 40 40 38 37 35 32 19 10 32 43 14 17 12 21 23 18 13 6 7 10 8 4 1 9 14 13 24 8 12 8 6 3 4 9 7 8 9 9 6 5 8 8 5
38 38 38 39 39 38 38 13 6 11 35 14 19 16 18 20 26 25 26 14 13 8 7 9 8 8 8 23 7 16 19 6 17 14 7 2 5 9 14 10 5 6 6 5
33 35 37 37 38 38 40 20 8 12 9 19 14 20 11 23 16 20 13 13 20 13 6 5 5 5 5 13 11 4 7 6 8 9 11 9 14 15 8 12 8 9 11 11
35 36 34 37 39 39 45 15 8 13 4 22 24 20 19 18 22 16 17 18 7 18 19 11 12 5 3 2 12 7 4 2 5 9 13 10 17 18 11 10 7 9 8 11
35 35 38 39 37 41 38 31 24 16 14 13 18 30 24 18 13 22 36 16 19 19 15 12 9 7 5 3 5 6 3 1 5 6 13 6 10 17 16 10 8 6 7 10
38 38 38 39 42 44 41 23 18 10 6 17 21 17 22 25 22 20 15 29 11 13 13 10 7 8 6 6 9 6 9 4 2 4 5 8 7 13 17 18 19 11 6 5
40 41 42 42 43 46 47 34 23 13 10 16 14 19 22 25 32 21 26 29 21 21 15 3 4 4 3 8 8 8 6 6 4 5 7 4 7 10 15 12 9 6 8 9
42 41 45 45 45 45 48 29 42 10 8 13 31 17 24 14 17 19 24 28 20 13 4 3 6 4 4 2 6 4 6 6 7 2 6 8 4 19 15 4 6 6 6 7
42 42 45 47 47 46 46 25 32 20 2 10 37 19 20 18 14 5 8 22 13 19 3 3 4 4 3 3 7 4 2 4 4 2 2 5 7 7 16 10 7 11 9 10
39 42 40 44 45 46 46 30 29 31 2 9 42 32 25 19 19 4 6 3 6 2 6 6 4 4 6 4 4 6 10 6 3 1 2 4 6 7 6 4 9 9 11 14
39 44 40 40 42 42 43 25 27 34 20 8 23 31 36 37 38 24 16 7 6 10 4 1 3 1 1 5 6 2 3 6 6 8 6 4 2 4 4 9 16 14 14 12
42 42 40 41 41 44 48 26 30 29 32 10 22 27 29 22 22 23 15 13 9 6 8 4 2 3 4 3 7 3 3 3 3 2 4 5 2 7 12 9 13 20 22 16
40 40 43 39 41 42 47 33 34 36 15 4 6 23 24 20 17 17 17 15 9 12 14 3 3 3 2 5 5 6 6 4 5 3 1 1 4 7 13 20 12 20 19 16
38 38 40 38 40 44 43 34 32 36 17 3 10 14 15 18 17 10 8 13 18 10 4 2 3 2 2 3 2 4 4 5 5 5 11 9 14 19 18 19 16 13 13 9
33 37 38 34 42 42 35 12 30 35 22 3 3 6 11 16 14 8 8 11 18 14 7 3 4 4 4 1 4 5 8 6 5 3 6 13 11 12 22 16 8 15 8 9
39 39 40 39 39 26 13 7 29 23 9 6 3 3 5 6 5 7 14 13 6 7 9 4 4 3 11 3 6 13 21 10 12 8 4 1 13 11 13 13 10 7 3 1
39 37 40 42 30 20 14 29 23 20 16 4 3 2 5 13 6 3 4 4 3 2 5 5 3 3 2 2 9 21 20 10 16 15 4 6 9 15 14 11 7 4 2 1
45 41 39 30 14 8 27 25 20 13 5 4 3 3 3 4 3 4 3 3 1 1 2 2 4 3 2 5 12 18 18 15 16 9 15 14 18 18 13 8 6 5 9 9
34 27 12 7 14 31 24 11 5 4 4 4 2 3 3 3 2 2 2 1 2 2 4 9 3 3 7 14 13 15 16 17 17 7 11 13 11 10 11 11 10 9 12 15
7 8 10 21 12 5 4 4 4 1 3 4 3 4 3 3 3 3 3 1 1 2 4 5 3 3 5 16 13 15 12 11 9 7 7 6 6 7 10 13 13 16 18 20
16 16 12 6 5 5 6 2 3 5 3 5 2 4 5 3 3 2 2 3 3 3 1 3 3 4 14 15 16 17 12 9 4 4 5 5 6 7 11 15 17 19 22 24
6 6 5 5 7 10 5 4 3 3 5 9 8 2 3 4 5 2 1 0 2 2 3 3 3 10 12 12 10 10 9 9 9 10 9 10 13 14 15 20 21 23 26 27
9 7 7 4 5 4 3 3 2 4 6 12 4 2 2 2 3 0 2 1 3 4 4 3 4 13 11 10 10 13 16 18 20 22 20 23 24 27 27 28 28 31 35 33
9 8 6 5 6 11 8 11 4 9 12 9 2 3 2 2 3 4 4 5 4 5 3 3 10 13 12 13 13 15 19 22 26 27 30 31 33 35 35 32 32 33 34 34
8 11 5 9 3 7 11 13 10 15 13 4 2 2 3 4 3 5 5 3 4 2 2 9 13 15 16 18 18 21 23 26 29 31 33 35 36 37 37 36 35 34 33 32
6 5 16 7 4 4 10 12 16 14 7 2 3 5 4 3 3 3 4 3 2 7 11 16 18 20 21 22 24 25 28 31 31 35 36 36 34 33 34 35 31 29 28 28

GFSNW_850_spd_075.txt.gz
Wind_Speed
38 36 35 32 30 28 27 26 5 23 32 11 6 14 12 17 13 17 12 4 8 9 5 4 4 8 4 20 5 6 9 6 10 10 3 3 5 6 6 5 3 1 5 7
37 36 36 36 35 32 27 14 9 36 39 10 12 12 15 17 12 11 3 4 9 5 4 4 7 6 5 17 7 5 6 6 1 5 5 5 5 5 4 4 3 8 6 6
36 36 37 37 38 38 31 12 5 10 29 12 19 17 10 20 17 17 9 6 5 7 4 4 5 8 5 14 15 25 9 5 15 17 3 5 4 1 1 6 6 5 7 9
35 35 36 37 38 39 34 18 6 11 8 17 13 21 11 17 17 20 19 12 18 11 6 8 7 10 7 10 18 8 4 9 5 12 13 5 3 3 1 5 13 13 11 16
33 36 35 35 37 36 38 12 8 11 3 21 21 17 21 19 19 16 15 10 6 13 22 20 8 6 4 3 6 6 7 5 3 8 10 12 16 10 7 5 9 5 4 9
29 29 31 32 35 37 33 27 15 12 12 13 16 25 19 21 16 15 25 14 16 14 15 21 25 24 20 9 4 2 4 5 3 4 6 4 8 9 17 6 6 6 5 7
32 33 33 34 36 38 39 26 21 10 7 14 19 18 25 20 22 17 11 30 16 25 22 22 23 25 24 15 11 9 6 3 0 2 4 5 4 10 18 14 15 14 7 8
36 37 37 36 37 40 42 25 26 22 9 10 16 18 21 25 25 19 20 22 18 7 21 4 7 4 3 10 16 13 10 3 1 3 4 4 1 4 5 7 14 10 11 12
38 38 40 39 39 40 41 37 29 16 10 13 22 18 20 12 15 15 24 24 24 19 4 4 5 4 3 3 2 7 7 5 5 3 4 5 5 13 10 1 5 5 5 6
37 40 42 43 42 43 43 35 30 18 4 10 27 16 16 17 14 4 6 18 15 18 2 2 4 5 4 4 2 4 4 2 6 4 4 7 8 5 11 4 6 12 14 13
35 35 39 44 42 45 44 40 32 26 9 8 24 30 24 22 26 7 8 5 7 3 7 3 4 3 6 2 3 1 4 5 3 3 3 6 5 0 5 4 7 6 7 9
35 37 40 40 46 45 44 32 34 26 15 5 6 33 37 42 42 33 20 13 7 12 4 3 2 1 1 5 3 2 3 6 4 6 5 5 6 2 7 6 2 1 7 14
35 41 42 41 45 45 48 31 32 29 14 15 21 16 35 42 38 25 11 6 8 8 8 5 3 3 4 3 4 4 4 2 2 3 5 9 13 8 9 6 7 11 10 11
31 33 39 41 40 45 48 34 37 28 10 2 7 20 23 36 38 33 30 13 17 8 9 3 3 3 5 3 4 4 5 1 3 4 7 7 11 17 14 12 15 12 7 5
33 38 40 40 40 42 40 35 37 37 20 6 4 15 20 22 27 29 28 22 16 15 3 2 3 3 3 0 1 1 3 6 2 7 14 9 14 22 24 20 13 9 8 5
39 41 40 38 42 41 39 12 29 36 20 4 4 7 15 20 18 17 16 17 17 15 8 3 4 5 5 2 4 2 4 15 20 8 29 15 18 17 16 18 5 2 4 5
40 40 38 41 46 41 24 8 9 34 31 7 1 3 6 16 14 7 5 4 3 3 4 3 4 3 6 3 3 6 11 14 21 21 24 9 7 7 8 12 8 6 3 2
38 38 40 38 37 33 14 4 20 30 18 7 2 3 5 6 5 4 4 4 3 1 1 4 3 1 3 1 8 15 18 18 12 20 20 20 6 9 11 10 10 10 8 6
38 44 42 31 17 7 24 29 22 13 10 4 3 3 3 5 4 6 4 5 2 1 2 2 6 2 1 5 9 11 13 13 18 18 14 5 11 12 11 8 7 8 9 9
33 24 7 6 12 28 17 8 8 3 1 3 3 3 3 5 3 2 3 2 2 2 4 6 3 3 9 15 11 11 13 11 14 19 11 15 14 10 9 9 7 7 10 12
3 6 8 18 17 6 3 4 4 2 4 7 4 5 4 4 3 2 2 2 2 2 3 4 2 3 7 18 15 14 12 8 2 5 4 5 5 6 8 10 10 11 13 16
14 11 10 5 4 4 6 2 3 5 3 4 3 5 6 5 3 3 2 2 2 3 2 3 3 3 13 14 13 14 11 8 4 3 4 6 5 4 6 10 12 14 17 20
6 5 6 8 9 12 6 5 3 3 4 9 8 3 4 3 3 2 2 2 1 4 3 3 2 8 10 11 10 10 9 7 7 9 9 8 10 10 10 15 17 19 22 23
9 7 8 4 5 4 3 3 2 4 6 8 3 2 2 1 2 1 2 3 4 3 3 2 3 9 9 10 8 9 12 13 15 17 16 18 20 22 22 23 23 28 34 35
9 8 6 5 4 6 7 12 4 10 8 5 0 2 2 4 4 3 4 5 4 4 2 2 8 9 9 9 9 13 16 19 22 24 26 30 31 33 34 33 33 34 35 34
7 10 4 9 3 6 10 13 9 16 10 2 3 3 4 5 3 5 5 3 3 2 2 10 9 11 12 14 16 18 21 23 25 28 30 34 36 37 37 35 34 34 33 33
6 5 20 5 3 3 9 13 18 14 7 3 3 5 4 3 3 4 4 3 2 6 12 15 14 15 16 19 22 25 27 29 29 29 32 35 35 35 35 36 32 31 30 29

GFSNW_850_spd_081.txt.gz
Wind_Speed
31 29 27 23 20 17 18 18 6 16 22 16 4 9 10 6 1 7 5 1 1 2 2 1 1 3 1 6 3 5 8 3 6 11 4 2 12 18 18 7 5 5 6 11
32 30 29 27 27 24 23 13 18 16 29 11 15 2 6 14 5 5 4 8 5 2 1 2 2 4 3 6 7 5 7 3 3 3 10 6 7 7 14 17 5 14 8 4
35 35 35 35 35 32 30 14 5 14 30 20 15 17 6 7 18 8 1 0 2 3 2 4 3 3 4 10 12 7 8 4 6 5 8 11 6 8 10 16 10 15 17 9
38 38 37 37 37 37 35 20 6 11 6 15 11 15 11 14 10 15 13 6 6 2 2 2 6 8 11 10 19 7 4 8 10 16 19 20 21 15 14 16 17 12 8 15
30 29 30 31 32 34 41 13 6 5 10 15 19 21 19 19 16 11 12 10 10 14 15 16 14 8 5 4 4 6 5 2 3 10 15 19 21 21 19 15 11 8 5 8
25 25 25 27 31 36 29 28 20 14 10 7 10 10 19 20 14 17 19 17 9 11 20 23 27 20 17 12 10 9 4 2 3 6 10 18 12 21 18 17 14 10 13 10
25 24 23 22 30 38 37 21 19 8 4 12 13 13 15 17 21 14 19 15 13 7 12 9 12 11 16 16 17 16 7 4 3 6 7 4 5 3 10 17 14 12 8 9
26 25 25 27 26 30 44 24 21 20 9 7 12 15 16 16 15 16 16 24 24 10 7 3 4 4 3 11 17 18 16 7 4 2 2 5 12 3 2 5 8 8 14 16
33 30 30 28 29 29 29 26 27 17 8 14 16 15 21 11 10 7 14 18 12 13 3 2 3 2 3 3 2 12 15 14 5 2 3 3 9 3 5 1 4 0 1 8
34 31 31 32 31 31 31 28 29 11 8 16 26 14 12 15 14 4 5 15 11 12 3 3 4 4 3 3 4 3 8 8 12 8 5 6 8 4 7 2 3 1 6 1
34 35 35 35 35 35 35 32 30 26 2 4 24 27 20 18 22 6 10 6 6 4 6 4 4 3 5 4 6 1 5 8 5 6 5 5 5 5 3 3 6 3 1 1
33 32 37 36 38 37 36 26 31 28 14 4 13 22 26 35 37 27 24 12 8 10 3 4 3 3 2 3 3 1 3 4 3 6 5 2 7 9 11 10 12 7 1 5
33 33 34 38 40 40 41 34 24 28 17 12 12 12 24 27 29 28 11 14 12 12 10 4 2 3 5 4 5 2 2 2 2 2 2 7 21 17 14 15 19 25 21 12
29 31 34 36 37 40 42 41 34 29 9 3 7 24 21 29 29 30 27 13 18 12 14 3 2 2 6 4 2 4 3 2 2 3 4 10 10 25 25 32 28 20 20 15
28 30 33 35 34 41 43 33 39 30 13 5 7 8 21 18 31 30 28 25 18 13 4 2 4 2 3 1 1 3 1 2 2 3 6 3 11 24 22 28 27 19 13 2
30 32 36 33 30 43 38 11 32 36 28 1 2 7 13 21 27 32 32 26 18 14 5 2 5 5 5 4 4 3 5 7 8 6 16 15 22 18 22 18 15 7 1 6
31 36 35 29 33 48 28 9 18 39 29 1 1 2 7 16 21 24 24 26 17 13 8 4 2 2 7 2 2 5 7 9 11 8 17 4 9 13 19 12 8 6 6 8
31 36 34 36 40 27 15 9 26 36 17 6 2 2 5 19 7 6 13 11 15 8 5 4 3 3 2 3 8 9 12 13 0 14 14 11 14 13 11 7 4 2 4 6
40 40 44 33 26 9 8 22 36 24 6 6 4 1 3 14 5 5 5 6 2 3 3 3 4 2 4 6 11 12 14 12 15 18 13 10 11 12 10 7 5 4 6 8
42 36 10 6 13 32 39 16 4 5 3 2 2 2 2 9 8 3 3 4 2 4 2 6 3 3 7 14 11 11 13 13 13 15 14 17 15 12 10 8 7 7 8 11
8 8 9 37 36 9 4 5 4 4 3 3 3 2 2 4 3 3 3 3 2 3 2 2 2 3 7 14 13 14 14 12 11 8 9 9 9 7 5 6 7 8 9 13
17 20 26 14 4 5 3 2 2 2 2 4 1 4 5 5 3 3 3 3 1 3 3 3 3 3 12 14 14 15 15 12 10 8 6 5 4 2 2 6 8 10 16 20
7 4 5 3 7 9 5 3 2 2 5 8 7 4 3 3 6 3 2 3 4 3 4 3 3 10 12 12 11 11 12 10 8 8 6 4 5 6 7 12 14 16 20 21
7 6 7 4 5 4 3 3 3 4 5 10 7 4 4 6 4 3 4 4 4 4 3 3 4 9 10 10 9 9 11 10 10 10 10 11 12 16 16 18 19 21 27 30
7 7 5 4 4 5 7 7 3 10 9 8 3 5 6 4 5 4 3 4 4 4 2 2 5 7 8 9 10 10 10 10 12 12 15 17 19 21 24 22 23 26 28 30
7 10 4 8 2 7 12 14 9 14 9 4 5 3 4 6 3 5 4 2 2 2 2 3 4 6 7 10 10 11 12 14 16 17 20 22 24 27 30 30 29 30 30 31
6 5 13 5 3 3 7 12 16 12 6 3 3 5 3 2 4 3 4 2 2 4 6 7 7 7 8 10 10 13 16 17 19 22 24 26 26 28 30 31 28 27 27 27

GFSNW_850_spd_084.txt.gz
Wind_Speed
25 26 26 25 20 16 16 15 5 9 14 11 5 6 11 5 9 18 8 4 4 4 3 4 4 3 2 6 6 4 4 3 8 13 3 1 9 18 19 12 13 10 14 14
25 25 23 21 19 21 16 10 11 13 16 8 12 7 5 23 14 7 9 8 8 5 5 5 6 6 3 5 5 6 5 1 5 8 10 14 11 11 14 18 17 20 12 3
28 28 26 25 24 25 25 8 4 16 16 20 16 21 16 6 19 15 13 3 7 7 9 9 5 5 3 3 9 3 4 5 6 8 7 9 8 14 15 17 15 17 22 20
32 32 32 31 30 29 29 17 9 13 6 14 17 19 10 17 6 16 12 8 12 11 10 9 11 12 12 11 12 11 6 11 12 14 17 17 17 18 18 22 23 21 16 20
27 28 27 32 36 36 39 16 5 22 23 25 18 18 21 21 22 13 14 15 13 16 14 12 10 9 12 8 3 4 2 3 6 11 15 16 17 22 23 25 24 23 22 22
18 19 24 26 30 33 32 29 25 6 18 18 9 16 20 23 18 17 23 16 14 13 14 13 14 17 17 14 11 6 4 2 3 6 3 11 17 11 19 25 25 23 19 16
22 22 21 21 27 32 37 22 21 14 11 13 17 20 23 23 24 23 17 21 15 2 1 9 16 16 17 17 17 15 9 10 4 6 10 13 5 18 26 22 21 21 21 19
26 24 23 24 23 23 39 26 24 17 12 14 21 20 18 18 21 23 19 20 14 10 2 4 6 6 8 14 22 20 18 12 5 5 10 10 2 6 11 15 11 15 19 15
25 25 25 26 26 27 25 21 33 20 13 19 21 15 24 14 14 7 18 7 14 11 3 3 4 4 3 3 5 15 19 16 10 6 7 4 3 4 6 18 5 8 5 5
29 30 29 29 28 28 28 26 29 32 6 22 29 19 16 21 15 6 5 10 7 17 5 5 5 4 3 4 4 5 13 12 15 12 5 6 5 8 7 4 2 16 16 9
30 29 30 31 30 32 32 31 28 14 15 17 21 28 31 23 23 9 9 7 5 3 7 6 5 5 8 7 8 4 7 9 8 10 6 8 15 2 6 2 19 9 6 5
31 32 28 32 34 33 34 24 25 27 8 6 16 24 29 31 29 24 21 12 9 11 7 6 4 5 3 9 4 3 6 6 3 5 5 5 12 9 8 13 14 14 14 16
30 31 31 31 38 37 38 30 23 22 14 9 9 13 28 24 22 27 16 21 11 11 10 3 4 5 6 7 9 6 3 4 4 3 8 5 9 7 14 16 18 19 17 15
31 34 35 32 37 41 39 36 29 27 8 3 2 11 19 23 28 24 25 12 16 7 8 3 3 4 6 6 9 6 4 1 3 5 6 13 5 16 22 23 21 21 18 12
27 27 35 38 33 39 41 37 32 25 12 5 8 4 18 21 20 23 21 14 13 14 6 4 5 6 3 3 3 8 4 5 4 3 4 7 12 22 19 21 21 20 16 8
30 29 29 32 36 35 41 14 28 29 17 4 5 8 11 17 20 22 21 22 12 8 5 3 6 6 6 3 5 6 6 6 8 5 14 15 14 13 18 19 17 15 11 8
31 29 31 35 36 46 31 8 15 33 23 3 2 3 11 17 17 20 20 20 12 8 4 5 6 3 5 3 2 8 9 9 6 9 14 5 12 12 17 16 13 9 8 8
32 32 33 35 39 39 16 8 23 39 16 3 2 2 5 20 9 9 13 11 12 9 4 3 4 3 3 2 6 8 12 11 3 14 12 9 11 12 12 11 10 6 6 7
38 40 42 37 28 10 14 22 37 29 5 6 4 3 3 15 5 6 6 6 3 6 4 4 1 2 3 5 9 11 13 10 13 15 11 9 10 12 13 11 9 5 5 5
43 35 10 7 17 39 39 16 5 4 3 2 3 4 3 10 5 3 5 5 3 4 4 5 3 3 9 9 9 10 12 12 12 12 10 14 12 10 11 9 7 5 4 5
8 7 12 38 35 9 5 5 4 4 3 6 5 9 2 6 4 3 5 3 3 4 3 2 3 3 6 9 10 11 11 11 9 8 8 8 8 7 5 5 3 3 5 7
17 22 25 11 5 5 3 3 3 2 2 1 1 4 7 5 6 3 4 2 2 3 2 3 3 4 8 10 10 10 11 10 8 7 6 4 2 2 1 3 3 5 9 14
20 7 5 7 6 5 2 3 3 2 4 4 1 3 5 5 4 2 2 2 4 3 3 3 3 7 9 10 9 9 9 8 8 7 7 4 4 4 6 9 10 11 14 17
7 5 5 4 3 3 3 2 2 4 5 9 7 5 3 3 3 3 4 3 1 3 3 3 3 7 8 8 8 8 10 10 9 9 9 9 9 11 11 12 13 17 22 25
6 5 5 4 3 4 5 5 2 7 9 8 2 5 6 5 5 4 3 3 4 4 3 3 6 6 5 7 8 8 8 8 9 9 11 13 14 16 19 18 20 23 25 26
6 8 3 6 2 6 7 11 7 11 9 4 3 3 4 6 3 4 5 2 3 3 3 5 4 6 7 9 10 10 10 11 12 13 14 16 19 21 23 23 25 26 25 26
6 5 9 5 4 6 8 10 13 12 6 3 3 5 6 2 4 4 4 3 5 7 7 7 8 7 8 8 8 10 11 13 14 15 18 20 21 23 25 27 25 25 25 25